Location: College Park
(38.9810°N, 76.9370°W)
Time: 13:46:18
(UTC-04:00)

Vanguard 2 - Visible Passes

Search period start: 17 July 2018 00:00
Search period end: 27 July 2018 00:00
Orbit: 553 x 2939 km, 32.9° (Epoch: 17 July)

Date Brightness Start Highest point End Pass type
(mag) Time Alt. Az. Time Alt. Az. Time Alt. Az.
17 Jul 9.9 00:43:06 10° W 00:59:57 56° SSW 01:04:06 45° SSE visible
17 Jul 10.7 02:58:00 10° W 03:05:24 23° WSW 03:05:24 23° WSW visible
17 Jul 10.4 20:37:16 10° WSW 20:53:31 66° SSE 21:10:32 10° E visible
17 Jul 10.2 22:48:29 10° W 23:06:17 70° S 23:18:30 20° ESE visible
18 Jul 9.9 01:01:33 10° W 01:17:48 49° SSW 01:19:50 47° S visible
18 Jul 11.1 03:17:38 10° W 03:21:08 15° WSW 03:21:08 15° WSW visible
18 Jul 10.4 20:55:15 10° WSW 21:11:44 70° S 21:28:46 10° E visible
18 Jul 10.2 23:06:46 10° W 23:24:28 66° SSW 23:34:20 28° ESE visible
19 Jul 10.2 01:20:06 10° W 01:35:31 41° SW 01:35:39 41° SSW visible
19 Jul 10.4 21:13:19 10° WSW 21:29:58 71° S 21:46:58 10° E visible
19 Jul 10.2 23:25:04 10° W 23:42:35 61° SSW 23:50:15 36° SE visible
20 Jul 10.5 01:38:52 10° W 01:51:34 33° SW 01:51:34 33° SW visible
20 Jul 10.4 21:31:28 10° W 21:48:15 71° S 22:04:53 11° ESE visible
20 Jul 10.2 23:43:26 10° W 00:00:34 55° SSW 00:06:13 42° SSE visible
21 Jul 10.8 01:57:58 10° W 02:07:34 25° WSW 02:07:34 25° WSW visible
21 Jul 10.4 21:49:40 10° W 22:06:29 69° S 22:20:55 17° ESE visible
22 Jul 10.2 00:01:51 10° W 00:18:27 48° SSW 00:22:16 43° S visible
22 Jul 11.2 02:17:42 10° W 02:23:36 17° WSW 02:23:36 17° WSW visible
22 Jul 10.4 22:07:53 10° W 22:24:41 65° SSW 22:37:00 23° ESE visible
23 Jul 10.4 00:20:25 10° W 00:36:12 41° SW 00:38:21 39° SSW visible
23 Jul 11.5 02:38:51 10° WSW 02:39:41 11° WSW 02:39:41 11° WSW visible
23 Jul 10.4 22:26:09 10° W 22:42:48 60° SSW 22:53:08 29° SE visible
24 Jul 10.7 00:39:12 10° W 00:53:51 33° SW 00:54:29 33° SW visible
24 Jul 10.4 20:33:29 10° W 20:48:27 70° S 21:06:15 10° ESE visible
24 Jul 10.5 22:44:27 10° W 23:00:49 53° SSW 23:09:19 33° SSE visible
25 Jul 10.9 00:58:22 10° W 01:10:40 26° SW 01:10:40 26° SW visible
25 Jul 10.4 20:51:38 10° W 21:06:41 67° S 21:24:12 10° ESE visible
25 Jul 10.5 23:02:51 10° W 23:18:44 46° SSW 23:25:33 34° SSE visible
26 Jul 11.2 01:18:15 10° W 01:26:54 19° SW 01:26:54 19° SW visible
26 Jul 10.5 21:09:48 10° W 21:24:52 63° SSW 21:40:28 15° ESE visible
26 Jul 10.7 23:21:26 10° W 23:36:34 39° SW 23:41:50 33° S visible
